Wind_Speed
49 49 50 52 51 51 52 50 51 56 56 53 52 51 46 46 48 48 46 46 45 48 46 42 43 41 39 40 46 50 51 49 49 50 53 53 58 56 58 54 52 52 54 56 58 61 64 63 64 65 69 71 71 70
55 49 50 53 54 53 49 48 51 52 49 48 45 46 47 45 46 47 50 53 56 56 54 49 48 42 45 46 48 55 57 54 57 55 52 56 56 59 56 60 54 58 57 58 57 64 61 62 66 69 68 68 70 70
65 60 54 54 56 54 51 52 50 50 48 46 46 47 48 46 45 46 47 47 51 54 55 54 50 45 50 49 51 54 55 54 55 53 55 57 59 57 58 62 62 63 61 63 64 63 66 68 68 67 66 67 69 69
59 54 56 60 60 57 57 56 55 53 53 51 50 49 49 48 50 49 49 49 52 53 55 53 53 49 45 47 49 50 49 52 55 52 57 61 62 62 66 64 66 65 61 61 67 65 66 65 65 65 66 66 66 68
52 55 52 54 59 59 54 55 55 58 58 56 52 52 55 54 51 52 52 53 52 52 56 56 54 54 49 49 51 53 54 53 54 57 59 59 59 57 62 65 68 59 57 57 64 63 66 65 65 64 64 64 67 68
52 53 54 53 53 53 51 51 52 56 57 56 56 56 55 54 55 56 55 57 55 53 58 58 58 56 56 55 55 53 53 53 54 57 58 58 58 60 64 70 59 51 56 61 67 67 68 66 64 64 65 66 67 69
58 57 56 57 58 56 56 55 54 55 55 53 52 53 51 54 52 54 57 60 58 55 56 60 64 63 63 61 57 58 54 53 52 55 57 58 59 61 65 68 52 59 62 63 65 66 65 61 63 62 63 64 64 65
60 58 57 57 56 57 57 56 55 55 55 55 56 52 50 49 51 55 57 58 56 55 57 59 66 65 65 65 62 61 60 59 62 62 60 58 58 63 66 58 63 65 65 64 60 58 59 60 59 61 61 64 65 64
63 61 60 58 57 57 58 58 56 55 55 55 54 53 53 52 52 55 57 56 54 56 59 62 62 61 65 64 61 62 67 70 71 69 68 69 67 68 64 68 68 65 64 61 59 56 58 61 61 62 66 65 63 62
64 64 62 60 60 59 60 61 61 60 59 59 57 56 59 59 59 57 58 58 57 59 60 59 57 59 60 64 68 70 72 74 75 72 74 73 71 69 70 72 70 65 64 61 62 61 63 63 65 66 66 62 59 58
68 66 65 64 63 62 61 60 60 59 58 59 58 57 58 59 61 62 64 64 60 61 61 59 59 59 61 65 69 75 76 75 76 73 74 75 74 74 73 66 63 64 66 66 66 66 69 70 69 69 64 60 57 54
64 64 64 64 64 63 62 61 61 60 59 59 59 58 58 58 60 61 62 65 68 68 66 63 62 64 66 69 70 71 72 75 77 76 77 77 70 68 62 59 63 63 64 65 66 69 71 68 66 62 60 55 51 51
58 60 62 63 62 62 63 63 62 61 60 59 59 59 58 58 59 59 60 62 64 66 68 68 68 67 67 68 70 72 70 70 69 67 62 53 50 58 59 65 63 63 65 68 69 74 71 69 62 58 53 48 47 47
49 52 54 55 55 55 54 55 54 54 54 55 57 59 57 57 60 56 54 53 55 57 60 62 64 64 65 63 58 58 60 59 53 52 46 47 55 65 71 69 66 67 69 70 71 68 64 60 53 48 44 43 45 45
41 42 43 44 43 43 43 43 44 45 45 47 48 50 51 52 48 46 48 49 51 54 55 56 57 57 56 55 56 58 60 62 61 58 58 60 63 66 68 68 67 67 64 60 58 56 52 48 44 42 43 42 42 42
39 40 41 41 41 41 42 43 43 43 43 44 43 40 40 42 44 46 48 50 51 53 53 52 52 54 54 57 59 60 62 63 57 55 59 65 67 66 63 62 60 57 54 51 48 44 41 39 40 40 39 41 40 38
35 37 38 39 40 41 42 42 42 44 45 41 37 40 44 46 49 51 52 52 53 52 51 52 55 56 58 62 61 58 56 55 57 59 61 61 58 55 54 53 51 48 45 40 35 37 36 39 38 37 40 39 36 33
30 30 32 33 35 36 37 39 41 43 40 40 42 43 46 47 46 45 47 49 50 51 53 54 56 57 59 59 56 53 54 56 58 58 55 52 51 50 49 47 43 40 35 30 36 35 33 33 35 37 36 33 30 35
32 32 33 34 35 36 38 39 41 41 40 40 39 41 42 41 41 45 49 51 50 51 51 52 56 55 54 53 52 52 52 53 55 52 49 45 44 42 40 39 36 33 28 35 35 31 31 33 32 30 28 29 34 33
30 31 32 33 33 35 36 37 36 37 37 36 37 40 42 43 45 45 45 46 48 50 52 54 53 52 54 53 54 55 53 52 53 50 41 39 39 37 34 30 30 28 33 33 27 27 28 27 25 27 30 31 30 30
27 28 29 30 31 34 36 36 37 38 39 40 41 42 40 38 38 39 41 46 49 51 53 52 53 53 55 57 57 57 55 53 50 49 44 37 33 30 26 26 25 27 24 22 23 23 25 27 26 28 28 27 27 28
27 28 28 28 29 30 32 32 30 29 30 29 30 32 34 36 37 39 44 47 48 48 50 52 54 57 61 61 59 59 58 52 47 44 40 32 29 23 21 23 23 22 21 21 23 28 28 25 26 25 26 25 25 25
28 27 26 26 27 30 31 28 26 26 29 30 32 34 34 35 38 42 46 47 46 43 49 53 53 51 49 44 41 39 38 41 39 36 29 29 27 23 19 22 23 22 22 25 28 32 28 25 24 25 25 23 23 24
27 28 30 32 34 35 33 32 31 31 32 32 33 35 35 36 38 41 42 37 37 43 44 43 41 38 33 31 30 27 26 31 30 26 26 27 27 30 26 26 30 30 28 27 28 27 23 24 25 25 24 24 23 23
32 35 36 37 35 35 34 32 30 31 30 27 26 25 23 29 34 37 33 27 35 36 34 34 32 26 26 23 20 20 21 20 21 23 25 26 27 29 33 34 33 30 27 26 24 23 24 25 26 25 24 24 24 23
39 40 40 36 33 31 29 26 22 18 19 20 20 21 24 29 31 29 29 33 34 33 32 30 24 13 21 27 21 15 7 10 24 24 23 23 23 25 26 27 27 26 25 24 23 23 25 26 28 26 25 26 27 26
40 38 35 33 29 22 18 15 19 21 21 21 20 23 26 32 32 32 33 33 30 27 22 21 21 20 21 20 20 15 11 16 25 22 19 19 19 19 21 21 21 22 23 23 24 25 26 28 28 26 26 28 29 30
27 23 17 14 16 20 22 22 19 18 19 22 25 26 30 31 32 34 33 26 23 22 20 19 19 19 20 18 16 16 19 22 20 19 19 19 18 17 17 18 20 22 24 26 26 25 26 27 27 27 28 30 32 33
24 21 23 21 21 23 24 24 21 21 24 26 28 31 30 26 28 27 23 23 21 20 21 20 20 18 15 15 16 17 17 18 15 18 18 19 19 20 20 20 22 22 22 22 24 26 27 28 29 30 31 32 33 34
17 18 21 21 21 16 16 26 26 25 27 30 32 33 28 28 28 24 26 28 27 24 23 23 21 17 15 15 17 18 19 20 20 19 19 18 18 17 16 17 19 21 23 25 26 27 29 31 33 34 34 35 35 36
23 25 24 22 16 13 18 23 27 28 28 28 30 32 29 28 27 29 29 26 27 26 24 23 21 18 18 19 19 19 19 19 19 18 16 16 18 19 21 23 24 26 28 29 31 34 35 37 38 38 38 38 38 37
25 24 26 25 21 22 23 23 23 25 25 25 24 24 24 26 27 27 28 31 27 25 23 23 23 21 20 21 21 21 20 19 18 18 19 22 24 25 27 28 29 32 34 36 38 39 40 41 40 39 38 38 37 37
32 31 30 30 27 26 26 28 28 27 25 24 23 25 27 29 31 32 28 24 21 20 22 23 23 21 20 22 22 21 21 22 23 23 24 26 27 29 31 33 35 37 39 41 42 43 43 42 40 38 36 36 36 36
Wind_Direction
217 225 226 227 233 235 233 236 240 241 245 249 250 252 251 251 253 254 255 259 258 264 264 263 263 266 267 272 273 274 276 278 281 283 286 287 285 287 287 290 293 295 295 300 301 305 307 310 308 306 307 308 308 307
214 221 224 225 230 232 231 232 236 240 243 245 247 248 250 252 254 253 256 259 260 263 267 262 265 269 270 266 275 278 280 282 282 282 284 286 286 285 289 288 292 293 295 296 302 300 306 305 302 303 306 306 308 307
217 225 229 232 231 230 231 233 237 238 241 244 245 247 249 252 255 258 258 256 261 266 269 272 268 264 270 272 274 279 279 280 280 282 281 282 281 284 286 287 289 291 296 300 301 301 301 300 302 303 306 304 304 305
222 228 230 231 229 231 232 235 238 240 242 242 246 247 250 253 255 259 261 263 264 266 269 273 274 276 269 270 273 278 279 277 280 280 280 279 282 285 286 290 290 291 300 302 295 296 294 298 301 302 301 301 301 301
228 231 233 233 233 235 236 238 240 245 245 247 247 249 251 254 258 259 260 262 264 264 269 273 278 279 277 270 271 272 275 278 279 280 282 285 285 288 288 288 290 302 304 297 293 296 297 302 302 299 298 299 300 302
232 234 233 238 243 245 244 247 250 251 249 250 250 253 258 257 257 261 259 262 265 266 268 271 275 278 276 273 272 274 275 276 278 281 282 283 283 284 287 290 299 307 297 297 299 299 301 302 300 299 300 302 303 304
236 239 240 239 241 244 246 248 250 252 254 254 254 256 256 257 258 258 261 263 262 262 264 267 271 275 277 277 274 273 278 282 280 279 281 282 285 283 283 289 300 293 295 296 296 297 298 296 298 298 299 301 301 301
235 237 240 243 244 244 245 246 247 250 253 252 254 254 249 251 256 254 254 258 260 262 263 263 266 272 274 276 279 284 289 287 283 284 285 288 286 286 289 297 294 297 296 297 294 292 292 295 297 300 298 302 305 306
237 239 241 243 244 246 248 249 249 250 251 253 254 253 252 250 252 253 253 256 258 261 263 266 268 269 270 275 280 285 288 287 287 288 290 290 292 294 297 296 299 299 297 297 295 294 296 301 302 303 307 309 309 309
239 241 242 243 244 245 246 247 248 248 249 250 252 252 251 252 250 253 256 259 259 263 267 266 269 270 272 275 279 283 283 284 285 285 288 289 291 296 298 299 298 295 295 295 296 297 301 305 305 306 310 311 311 310
237 239 241 242 241 242 242 243 244 247 248 249 250 251 253 254 253 253 255 257 261 264 267 271 271 270 270 272 274 277 280 282 283 286 288 291 293 294 296 295 294 297 297 299 301 303 307 307 307 308 310 311 311 310
237 239 239 241 243 244 243 244 246 247 249 250 251 252 254 255 257 257 259 261 261 264 268 268 268 269 270 272 275 277 279 280 284 286 286 288 291 290 288 288 294 295 298 299 301 303 307 306 306 307 309 309 308 309
235 238 241 242 242 242 244 246 248 250 251 252 254 257 258 259 260 263 265 266 265 266 266 266 268 271 273 275 277 278 280 283 284 284 286 284 281 280 285 293 295 297 298 297 298 300 301 302 305 307 307 305 308 308
231 233 235 238 241 241 243 245 248 250 252 253 255 255 258 262 263 264 263 264 265 266 268 268 269 271 271 273 274 275 277 278 274 274 269 268 273 280 288 291 292 294 294 294 296 298 300 301 303 304 305 305 304 307
231 233 236 237 239 241 242 243 246 248 251 253 255 257 261 264 264 265 266 266 265 265 268 269 269 270 273 273 275 276 276 277 279 284 286 285 284 285 288 291 292 292 293 294 296 298 299 300 299 299 299 303 307 308
230 233 236 238 240 242 243 244 246 248 251 254 256 261 262 265 268 268 268 269 270 271 273 274 276 276 275 276 276 278 281 285 290 283 280 281 283 287 290 291 292 293 294 295 296 296 297 298 298 296 301 305 306 307
235 238 238 239 241 243 245 246 248 250 251 255 258 262 264 264 266 268 270 270 270 271 272 273 274 276 279 278 280 285 287 282 279 279 282 287 291 292 291 291 294 296 296 296 292 293 295 296 293 297 301 304 305 304
233 237 240 242 243 244 246 249 251 253 256 261 262 262 264 266 266 266 265 267 270 272 274 275 276 277 278 282 286 285 282 282 284 286 289 291 291 292 295 295 297 294 292 289 297 293 292 296 297 298 301 301 302 305
241 245 248 249 251 252 253 254 257 259 260 260 262 261 261 262 264 265 267 269 270 270 272 274 275 280 283 283 283 281 282 282 284 285 289 291 292 294 295 294 292 289 287 300 296 289 292 296 296 297 297 303 304 305
245 248 250 251 253 255 256 257 258 260 261 259 258 259 263 266 266 265 267 269 269 271 274 277 282 283 283 282 283 284 284 283 284 287 290 292 292 293 292 289 290 286 293 295 290 290 295 295 293 297 302 298 303 309
245 249 254 257 258 258 257 258 259 260 260 260 261 264 265 265 266 268 270 271 276 280 282 285 284 284 282 283 283 282 282 281 282 285 287 288 287 287 284 291 297 295 291 287 293 296 295 297 300 297 293 301 306 315
255 256 256 253 253 253 254 256 258 260 261 264 264 264 266 269 271 271 271 274 278 283 284 286 288 288 286 284 283 280 279 278 279 280 282 283 282 272 289 291 286 283 284 288 289 301 308 295 293 290 296 302 309 318
251 251 253 258 260 264 265 262 264 266 271 272 275 274 274 274 273 273 275 278 282 287 288 288 290 291 293 294 290 284 278 274 274 280 276 269 272 261 273 279 281 278 278 283 289 295 295 292 289 291 296 300 311 319
253 254 256 255 258 263 270 275 280 285 284 282 278 276 276 274 273 273 279 289 293 289 293 297 296 297 296 295 293 289 280 275 276 270 271 267 270 254 261 274 280 289 293 296 292 290 290 285 288 292 293 297 307 315
253 254 255 258 261 266 275 279 279 276 276 270 264 265 269 273 280 286 298 307 299 297 297 302 297 302 309 304 298 292 290 289 284 278 275 273 274 268 264 271 281 288 292 288 280 280 284 285 291 292 289 291 299 306
253 257 261 266 270 272 275 273 266 258 250 253 261 275 277 280 291 308 308 301 308 306 302 301 291 293 279 297 298 295 291 309 288 284 278 276 272 268 269 273 277 280 280 280 279 281 284 290 293 290 286 286 291 296
255 261 266 268 268 264 252 252 262 270 267 269 274 278 282 281 298 308 304 307 310 312 304 301 293 293 289 284 286 280 256 269 273 281 281 282 280 275 272 271 271 273 276 275 279 284 288 293 294 292 289 287 290 292
264 267 268 259 255 256 261 260 258 260 270 276 272 276 279 292 303 301 306 309 312 312 310 308 312 309 297 287 284 275 259 267 279 284 283 284 285 283 279 272 268 270 274 278 283 287 295 301 300 296 294 293 293 294
267 268 266 267 267 275 272 264 265 274 278 273 273 277 290 296 299 302 300 304 309 314 311 302 298 302 293 285 281 278 276 274 277 284 288 290 288 285 283 279 277 278 279 281 286 291 296 301 304 302 298 296 296 297
263 258 251 252 265 287 283 264 259 266 269 267 272 282 294 293 294 302 308 307 308 310 311 305 294 286 275 272 275 276 276 276 273 277 283 283 284 286 285 284 284 284 284 285 287 295 301 304 305 304 301 297 295 295
262 263 262 260 256 270 283 267 261 267 274 276 276 282 288 288 291 294 297 303 304 302 306 306 301 287 272 268 273 278 280 283 282 278 275 279 286 285 284 283 283 284 288 296 299 300 301 302 302 302 301 299 298 298
266 262 258 259 267 270 266 270 275 279 286 289 287 286 287 289 289 297 301 297 290 289 297 304 302 295 277 270 271 271 272 279 284 286 282 280 281 281 283 286 289 291 292 293 295 297 298 299 300 301 299 297 296 297
258 258 256 253 260 259 259 267 278 282 286 292 295 297 299 297 295 298 288 276 277 288 294 293 294 295 287 278 276 277 282 285 284 280 276 275 276 277 279 282 284 287 290 293 295 295 297 298 298 296 295 295 295 297
Height
5639 5646 5652 5660 5667 5672 5676 5681 5686 5691 5696 5700 5704 5707 5711 5714 5717 5720 5723 5722 5723 5723 5727 5730 5730 5730 5730 5729 5724 5722 5721 5722 5720 5716 5712 5709 5702 5701 5695 5696 5693 5689 5684 5679 5673 5667 5661 5656 5647 5640 5633 5628 5617 5614
5628 5634 5639 5646 5654 5661 5666 5671 5676 5681 5685 5690 5693 5696 5700 5703 5705 5706 5711 5712 5709 5708 5710 5718 5717 5723 5719 5715 5715 5708 5708 5708 5704 5704 5702 5694 5692 5687 5686 5681 5682 5675 5673 5670 5669 5657 5652 5643 5633 5626 5619 5610 5603 5593
5614 5621 5629 5636 5643 5648 5654 5660 5665 5670 5675 5680 5683 5687 5689 5692 5694 5696 5697 5699 5699 5697 5696 5697 5709 5709 5703 5705 5701 5698 5696 5695 5692 5690 5685 5681 5678 5677 5674 5667 5664 5658 5656 5654 5650 5646 5635 5623 5618 5612 5606 5597 5589 5580
5601 5609 5617 5625 5632 5637 5641 5648 5653 5658 5664 5668 5672 5675 5679 5681 5682 5683 5685 5687 5687 5685 5683 5684 5688 5692 5694 5692 5688 5685 5682 5679 5677 5677 5672 5669 5665 5664 5658 5654 5648 5646 5646 5641 5631 5628 5621 5615 5607 5600 5592 5584 5575 5567
5590 5598 5605 5612 5619 5625 5629 5635 5640 5645 5650 5654 5659 5663 5667 5669 5670 5670 5672 5673 5674 5673 5671 5672 5674 5675 5680 5679 5675 5671 5669 5666 5664 5661 5659 5656 5652 5649 5646 5640 5635 5640 5632 5620 5611 5611 5603 5605 5596 5584 5575 5568 5560 5550
5579 5587 5594 5601 5607 5613 5617 5622 5627 5632 5636 5640 5644 5649 5653 5657 5657 5658 5658 5659 5661 5662 5658 5659 5661 5660 5661 5661 5660 5660 5657 5654 5652 5649 5646 5643 5641 5632 5627 5625 5632 5624 5611 5603 5596 5594 5589 5584 5579 5570 5560 5551 5542 5534
5568 5574 5581 5588 5595 5600 5605 5610 5614 5620 5624 5627 5631 5635 5638 5641 5644 5644 5645 5647 5647 5647 5643 5643 5644 5646 5643 5643 5646 5643 5640 5640 5637 5635 5633 5629 5627 5618 5613 5612 5625 5606 5597 5591 5582 5574 5572 5566 5558 5553 5544 5538 5529 5519
5557 5563 5569 5575 5580 5586 5592 5597 5602 5606 5609 5613 5617 5620 5624 5626 5629 5630 5629 5630 5630 5630 5629 5629 5631 5632 5630 5624 5625 5620 5619 5618 5616 5614 5616 5614 5612 5602 5598 5606 5595 5589 5580 5575 5568 5559 5551 5547 5542 5535 5527 5518 5511 5501
5544 5550 5556 5562 5566 5571 5577 5582 5586 5591 5595 5599 5603 5606 5609 5612 5615 5615 5616 5616 5618 5616 5612 5616 5621 5619 5612 5610 5609 5607 5600 5595 5594 5596 5596 5589 5593 5586 5586 5579 5574 5568 5559 5554 5550 5543 5536 5529 5522 5515 5507 5499 5490 5482
5529 5536 5542 5547 5553 5558 5563 5568 5573 5577 5581 5585 5588 5592 5593 5596 5600 5602 5602 5603 5602 5599 5596 5602 5605 5600 5601 5599 5595 5591 5583 5581 5575 5584 5573 5573 5575 5573 5563 5559 5552 5547 5542 5536 5531 5527 5519 5513 5504 5497 5488 5480 5473 5465
5518 5524 5531 5536 5541 5546 5550 5555 5560 5564 5567 5571 5574 5576 5578 5580 5583 5585 5585 5588 5587 5584 5582 5587 5586 5585 5584 5582 5579 5570 5567 5564 5560 5569 5559 5554 5557 5549 5545 5537 5531 5527 5521 5517 5511 5505 5498 5491 5485 5478 5471 5464 5458 5450
5504 5510 5515 5521 5527 5532 5536 5541 5545 5549 5553 5557 5559 5560 5563 5565 5566 5570 5570 5572 5570 5567 5567 5568 5567 5567 5566 5564 5560 5555 5552 5546 5544 5546 5544 5540 5536 5530 5526 5521 5516 5511 5506 5500 5494 5488 5483 5476 5470 5464 5457 5451 5445 5438
5490 5495 5501 5506 5511 5516 5522 5525 5528 5533 5536 5539 5542 5544 5549 5549 5550 5555 5555 5554 5549 5546 5544 5547 5550 5549 5548 5546 5542 5538 5535 5532 5527 5523 5523 5523 5515 5511 5509 5506 5502 5497 5491 5485 5480 5474 5468 5462 5456 5450 5443 5438 5432 5427
5477 5483 5487 5492 5498 5502 5506 5510 5514 5518 5521 5524 5526 5530 5531 5535 5538 5538 5535 5533 5531 5528 5527 5529 5532 5532 5529 5531 5526 5523 5519 5520 5518 5515 5512 5504 5502 5498 5495 5492 5487 5482 5475 5468 5463 5459 5452 5447 5442 5437 5432 5427 5421 5416
5468 5472 5476 5481 5485 5490 5493 5496 5500 5503 5506 5510 5512 5513 5521 5522 5520 5518 5516 5515 5514 5512 5510 5512 5513 5513 5514 5513 5511 5509 5505 5501 5502 5502 5496 5488 5483 5478 5475 5473 5469 5464 5458 5453 5448 5444 5438 5433 5429 5425 5421 5415 5410 5405
5458 5462 5466 5470 5474 5478 5481 5484 5488 5490 5493 5496 5500 5506 5509 5507 5504 5502 5499 5498 5497 5495 5496 5496 5495 5494 5496 5492 5495 5491 5486 5486 5486 5480 5472 5467 5464 5463 5460 5455 5451 5447 5443 5438 5434 5429 5425 5421 5418 5414 5410 5405 5400 5396
5450 5453 5457 5460 5464 5467 5469 5473 5476 5477 5479 5486 5493 5493 5492 5491 5489 5484 5483 5482 5481 5482 5481 5479 5478 5478 5475 5472 5474 5476 5475 5468 5463 5460 5457 5454 5451 5448 5443 5439 5437 5433 5428 5425 5421 5417 5414 5410 5407 5404 5399 5395 5391 5387
5441 5446 5449 5451 5453 5456 5459 5462 5463 5466 5472 5477 5479 5478 5475 5475 5474 5472 5468 5466 5467 5466 5465 5465 5463 5461 5458 5458 5461 5459 5452 5449 5445 5443 5442 5441 5436 5432 5427 5424 5422 5418 5415 5413 5410 5406 5404 5400 5397 5393 5389 5386 5383 5379
5434 5437 5439 5442 5444 5447 5448 5450 5453 5457 5461 5463 5464 5462 5459 5461 5461 5458 5455 5454 5453 5450 5450 5450 5443 5448 5447 5445 5442 5440 5438 5433 5428 5431 5430 5426 5420 5417 5414 5411 5408 5405 5404 5401 5398 5395 5393 5390 5387 5384 5381 5378 5375 5371
5426 5427 5429 5431 5434 5435 5437 5440 5444 5445 5449 5450 5450 5448 5448 5451 5449 5445 5443 5439 5436 5435 5435 5434 5435 5433 5429 5429 5424 5420 5419 5418 5414 5413 5416 5413 5407 5405 5403 5400 5397 5395 5393 5390 5388 5387 5384 5382 5379 5377 5374 5371 5367 5363
5418 5419 5421 5423 5425 5426 5427 5430 5432 5435 5436 5437 5437 5435 5436 5435 5435 5432 5429 5423 5423 5423 5419 5420 5417 5416 5410 5406 5405 5401 5400 5400 5399 5397 5399 5400 5398 5394 5393 5390 5387 5385 5383 5382 5380 5378 5376 5374 5371 5369 5366 5363 5360 5356
5411 5412 5413 5413 5414 5415 5417 5420 5421 5423 5424 5425 5425 5424 5423 5423 5421 5418 5413 5413 5412 5412 5406 5402 5398 5393 5389 5387 5386 5383 5381 5383 5384 5384 5385 5385 5385 5384 5382 5381 5379 5377 5375 5374 5373 5370 5368 5366 5364 5361 5359 5356 5353 5349
5402 5404 5404 5404 5405 5404 5407 5410 5412 5414 5413 5414 5412 5411 5411 5408 5406 5403 5400 5401 5401 5399 5392 5385 5381 5377 5372 5370 5367 5366 5366 5365 5368 5371 5372 5373 5373 5374 5373 5372 5371 5369 5368 5367 5365 5362 5360 5358 5356 5354 5351 5349 5346 5343
5394 5395 5396 5396 5397 5397 5399 5400 5401 5403 5401 5400 5399 5397 5397 5394 5392 5388 5389 5392 5389 5382 5378 5374 5369 5364 5360 5356 5354 5354 5355 5354 5357 5359 5361 5362 5362 5362 5362 5362 5361 5361 5359 5357 5355 5354 5352 5351 5349 5346 5344 5341 5339 5336
5385 5385 5386 5386 5389 5390 5393 5393 5392 5392 5392 5388 5386 5386 5388 5384 5381 5379 5381 5382 5374 5370 5366 5362 5357 5353 5350 5349 5347 5347 5347 5348 5349 5350 5351 5351 5351 5352 5352 5353 5352 5351 5349 5348 5347 5346 5345 5343 5341 5339 5336 5334 5332 5329
5373 5374 5375 5379 5381 5382 5383 5382 5382 5381 5380 5379 5380 5379 5378 5375 5373 5372 5372 5366 5363 5358 5354 5351 5349 5346 5346 5342 5342 5342 5343 5343 5343 5341 5341 5342 5342 5342 5343 5343 5343 5342 5341 5340 5340 5338 5337 5335 5333 5330 5328 5326 5324 5321
5362 5365 5369 5370 5371 5372 5372 5374 5373 5372 5373 5373 5373 5370 5368 5365 5364 5364 5360 5357 5353 5349 5345 5343 5342 5340 5339 5337 5335 5336 5337 5338 5335 5335 5334 5334 5334 5334 5334 5334 5334 5334 5334 5333 5332 5331 5329 5327 5324 5322 5320 5318 5315 5313
5357 5359 5361 5364 5363 5364 5363 5364 5364 5365 5367 5365 5363 5361 5358 5358 5358 5355 5352 5349 5345 5343 5339 5337 5335 5334 5332 5331 5331 5330 5331 5330 5330 5329 5329 5328 5328 5328 5328 5327 5327 5327 5326 5325 5324 5323 5321 5318 5315 5313 5312 5310 5307 5304
5349 5352 5352 5354 5354 5353 5354 5356 5357 5358 5357 5354 5353 5352 5352 5351 5350 5347 5345 5343 5339 5336 5333 5331 5330 5328 5327 5326 5326 5326 5325 5325 5325 5324 5324 5323 5322 5321 5321 5320 5320 5319 5318 5317 5316 5314 5312 5310 5307 5305 5302 5300 5298 5295
5344 5345 5345 5346 5346 5346 5348 5345 5348 5348 5346 5346 5345 5343 5343 5343 5341 5340 5338 5336 5333 5330 5327 5325 5323 5322 5321 5321 5321 5320 5319 5318 5318 5318 5317 5316 5315 5315 5314 5313 5313 5312 5311 5309 5308 5306 5303 5301 5298 5295 5293 5290 5288 5285
5336 5336 5337 5337 5338 5339 5338 5338 5338 5338 5338 5337 5336 5334 5334 5333 5332 5331 5331 5329 5326 5322 5320 5319 5317 5316 5315 5314 5314 5314 5313 5312 5311 5310 5309 5309 5309 5308 5307 5306 5305 5304 5302 5300 5298 5296 5294 5291 5288 5285 5282 5279 5276 5274
5326 5327 5327 5328 5330 5330 5330 5329 5329 5329 5329 5328 5326 5325 5325 5323 5323 5324 5323 5320 5318 5316 5314 5312 5311 5309 5308 5308 5307 5306 5305 5305 5304 5303 5303 5302 5302 5301 5300 5298 5296 5294 5292 5291 5288 5286 5283 5279 5276 5273 5270 5268 5265 5263
5315 5316 5317 5318 5320 5322 5323 5321 5321 5320 5320 5319 5318 5317 5317 5315 5314 5315 5312 5310 5310 5309 5307 5306 5304 5303 5302 5301 5300 5299 5298 5297 5297 5296 5295 5294 5293 5291 5290 5288 5286 5284 5281 5279 5276 5273 5270 5267 5264 5262 5259 5257 5254 5252